Theta_e
318 318 318 318 317 318 318 316 314 314 314 315 315 315 315 315 318 321 330 332 335 335 333 333 333 335 342 339 338 337 344 343 344 346 346 348 350 348 346 346 350 353 353 348 348
318 318 318 317 318 318 318 317 315 314 314 315 315 315 315 315 318 325 325 329 332 332 334 334 334 333 335 335 336 339 343 340 341 339 342 351 351 348 346 348 355 355 350 348 348
317 318 318 317 317 318 317 317 316 314 314 314 315 315 315 314 329 327 328 329 332 332 335 333 334 334 334 335 335 339 340 340 339 337 338 342 352 344 346 356 357 355 352 349 348
317 317 315 316 317 317 317 316 316 314 314 314 314 315 315 317 329 328 330 331 330 332 333 333 333 335 335 337 334 337 335 336 338 338 338 338 340 346 349 348 351 353 351 349 349
316 316 316 315 316 317 317 316 315 314 314 314 314 315 315 327 326 325 326 327 329 332 331 333 335 337 333 333 332 332 335 334 335 337 337 337 339 338 345 354 354 353 352 350 348
316 316 316 315 315 317 317 316 315 314 314 314 314 315 326 325 324 325 326 328 331 333 335 335 336 336 331 332 333 335 333 333 334 334 336 336 337 345 343 347 355 354 353 351 349
317 316 316 313 314 317 317 316 316 314 314 314 315 317 326 324 324 326 327 328 332 334 334 337 337 334 330 331 334 334 333 333 336 334 334 333 342 344 341 344 350 354 353 352 349
317 315 315 314 315 317 316 316 315 313 314 314 315 322 324 320 322 323 324 326 327 332 335 336 335 332 332 330 333 332 333 335 335 332 335 333 342 343 340 341 346 350 354 352 351
316 316 315 316 316 317 316 317 313 313 313 315 317 323 321 323 323 324 324 325 328 332 333 334 333 331 331 331 332 332 334 340 338 333 332 332 346 344 339 339 348 347 349 344 357
315 316 315 316 317 317 317 313 314 313 315 319 324 324 326 325 324 323 324 325 326 331 332 332 332 330 329 330 334 339 337 337 336 333 332 334 346 346 343 341 343 348 343 340 344
314 316 315 316 318 316 314 319 321 322 323 322 322 326 323 325 324 323 323 324 325 331 333 331 331 332 330 331 334 337 338 334 333 333 331 338 343 345 343 341 341 349 349 341 341
313 315 316 316 318 316 314 322 324 324 324 323 321 322 322 322 322 320 323 324 327 330 332 331 331 332 332 332 334 333 331 332 332 333 330 344 348 346 342 343 343 343 350 346 344
313 314 316 319 317 316 314 319 321 322 325 328 324 322 321 323 322 321 322 325 330 330 331 330 332 332 332 332 334 331 328 329 334 335 332 347 346 342 342 339 342 349 347 348 348
313 314 316 320 317 321 319 319 318 320 326 333 325 321 322 321 322 324 326 327 329 330 329 330 332 333 330 333 332 326 329 331 333 328 329 335 350 344 345 342 345 344 344 345 346
313 314 317 318 316 322 325 324 322 322 336 330 322 322 320 320 322 323 327 327 328 330 330 330 331 330 331 331 330 328 330 331 330 328 333 342 339 342 343 341 338 340 341 341 347
314 314 318 319 316 321 322 326 327 329 335 323 321 320 320 321 321 325 327 326 327 329 328 328 328 328 330 329 328 330 329 327 327 324 325 337 343 343 346 341 341 344 342 342 348
315 315 317 319 326 326 324 323 330 331 330 324 324 323 322 322 323 327 325 324 324 327 327 327 327 328 329 327 327 328 326 325 329 330 333 339 346 349 346 343 343 344 342 344 346
317 321 323 324 322 326 326 327 334 331 329 325 326 323 323 324 323 324 324 323 323 323 324 326 326 327 328 325 326 327 324 324 333 339 341 347 356 351 347 344 341 339 342 345 347
318 326 323 323 320 322 328 331 331 333 332 326 325 324 324 324 324 323 321 322 323 323 323 324 326 326 327 327 326 326 327 327 330 334 348 353 351 352 347 345 342 343 344 345 347
319 324 330 330 321 324 330 331 332 329 329 328 324 324 325 324 324 322 322 323 323 325 323 324 325 330 327 326 326 326 328 331 334 344 350 354 353 355 350 342 343 344 345 344 347
321 332 333 330 324 327 331 329 331 329 329 332 329 325 325 325 324 324 323 324 325 324 324 323 324 335 336 330 328 329 329 331 338 340 344 350 353 343 343 338 342 344 346 345 346
323 336 327 325 327 328 328 328 324 327 328 332 332 332 329 327 325 325 327 325 325 325 325 324 324 335 335 333 334 331 334 334 340 346 345 347 352 344 342 342 342 349 349 346 347
324 332 329 325 329 326 327 327 327 327 328 331 329 331 332 333 332 327 327 328 327 325 326 325 323 334 340 337 337 340 339 336 332 339 339 353 357 343 340 342 339 352 353 352 351
324 344 340 327 327 326 326 328 328 327 329 330 332 333 333 332 332 331 329 329 327 328 336 330 324 327 337 340 339 340 339 338 330 332 335 337 348 342 342 341 345 354 352 352 356
326 342 340 341 330 332 329 329 332 332 330 329 332 333 335 339 336 332 330 330 327 339 331 328 329 340 339 337 337 339 338 337 337 333 333 335 344 344 344 343 352 353 353 359 359
328 336 337 334 332 337 336 329 333 331 328 330 330 331 332 335 337 338 334 332 331 332 329 330 333 340 340 338 338 339 337 337 339 340 333 348 349 345 344 346 353 357 358 357 355
325 327 333 334 338 339 337 330 331 329 332 329 331 330 340 340 338 337 336 336 336 335 329 329 330 340 350 342 341 340 342 340 341 341 336 345 348 346 347 353 355 355 356 356 356
Wind_Speed
17 17 17 17 16 15 15 14 13 12 12 12 13 14 16 20 22 15 7 8 6 11 13 20 22 24 28 16 13 2 4 1 5 6 2 14 10 3 5 8 5 6 16 18 27
17 17 17 17 17 16 15 14 13 12 12 12 13 13 15 19 21 16 20 17 12 11 13 15 18 21 10 9 4 3 2 4 6 8 4 15 16 8 4 8 5 17 19 25 24
18 18 19 19 18 17 16 14 13 12 11 11 13 13 14 16 5 8 12 19 15 10 15 16 25 16 15 14 3 2 3 4 8 3 7 4 16 6 13 1 6 18 17 15 16
20 20 21 21 20 19 17 15 12 11 10 10 12 13 13 5 3 3 5 13 13 10 15 13 10 10 14 17 4 3 5 4 7 7 5 4 1 11 9 7 18 18 19 13 10
22 22 23 23 22 20 17 15 10 9 9 9 9 11 5 3 10 9 5 9 12 11 14 11 14 15 10 4 8 5 3 8 9 9 9 7 2 5 8 21 21 20 19 17 14
24 23 24 24 23 20 17 13 8 7 7 7 7 8 2 8 17 17 11 9 14 15 15 18 12 18 9 10 3 4 6 8 8 5 3 4 3 8 6 15 21 19 17 16 15
25 25 25 25 23 20 16 10 7 6 6 6 5 4 6 16 11 11 14 13 15 18 12 23 25 9 9 9 5 4 7 9 8 5 3 5 4 7 8 10 15 18 17 15 13
26 28 26 26 23 19 11 8 5 4 5 5 5 0 8 19 22 28 20 13 18 20 25 26 22 7 5 10 12 5 6 4 5 6 5 7 4 7 6 7 8 12 17 13 20
27 27 28 27 23 16 9 6 4 4 4 4 3 4 9 12 15 22 20 20 18 20 21 19 5 6 9 8 7 5 5 5 5 7 2 3 5 8 8 7 9 10 13 12 15
29 29 29 27 21 13 5 2 1 1 3 3 10 6 8 10 16 22 19 17 10 8 9 7 2 6 7 3 7 2 6 8 6 7 4 6 11 4 2 2 5 13 14 9 7
30 31 32 27 19 10 2 1 1 1 8 11 10 7 10 20 17 16 20 20 14 6 8 8 4 10 15 15 17 5 3 6 1 7 6 14 16 10 11 11 15 10 4 9 10
31 32 34 26 16 8 5 5 11 12 8 22 20 19 27 21 7 11 24 10 9 9 9 6 9 16 17 18 5 3 6 10 5 9 7 14 10 8 4 2 7 12 4 12 10
34 35 35 25 13 7 13 20 14 21 4 9 13 10 14 9 6 9 13 10 8 9 10 10 15 19 17 14 6 5 6 9 4 6 7 10 6 9 6 2 14 15 14 8 6
34 37 36 19 7 4 8 14 19 17 4 6 11 7 12 6 10 14 18 10 5 11 12 11 19 18 11 1 3 7 7 8 6 3 3 4 2 4 5 7 9 10 15 3 7
35 39 32 14 9 5 7 9 12 12 4 12 10 9 9 10 7 9 24 9 14 12 6 15 11 9 4 4 5 9 7 1 4 5 4 3 5 7 6 5 9 6 12 6 9
36 41 29 4 9 18 16 11 0 2 7 8 10 9 11 11 12 12 12 9 9 11 10 11 8 6 7 7 8 7 4 8 5 3 4 7 6 6 3 3 4 3 6 8 9
41 38 21 11 6 8 12 8 2 5 7 13 10 15 10 10 15 16 11 10 7 4 7 9 9 8 4 4 6 6 0 4 4 3 5 6 8 2 11 10 10 9 6 8 9
43 24 11 20 18 14 12 2 6 10 10 12 14 13 12 11 9 9 9 8 11 10 6 7 6 9 7 8 8 7 8 5 4 5 3 10 4 7 18 20 14 14 8 9 10
35 10 6 17 17 13 2 5 5 6 12 17 14 13 10 14 8 9 10 9 12 13 9 6 9 8 8 6 7 9 5 10 3 5 5 4 4 9 21 24 6 9 8 9 9
26 7 14 11 16 9 3 5 7 14 21 11 10 12 11 13 9 9 11 12 14 17 11 10 7 12 9 8 9 9 6 6 4 3 3 5 9 11 22 18 5 7 9 9 8
7 3 9 24 19 3 5 6 9 22 20 6 2 11 11 8 10 11 13 14 18 13 13 7 3 6 3 5 7 4 4 4 6 5 4 1 5 6 23 15 4 9 13 10 9
8 3 19 23 4 4 7 7 7 22 27 3 6 5 4 8 11 9 8 13 13 15 8 9 4 1 4 8 10 9 5 7 5 4 5 4 5 6 14 13 10 2 9 10 12
5 4 9 17 4 8 9 17 19 21 24 3 3 8 12 7 3 8 9 11 9 11 6 5 3 2 6 5 10 5 9 9 7 5 5 5 5 13 4 12 13 5 12 12 12
4 3 2 4 8 11 11 12 15 19 10 12 11 7 7 7 8 5 5 2 8 6 8 5 2 4 7 5 4 6 9 14 4 4 7 10 8 12 15 17 14 11 11 10 14
4 1 1 4 6 8 14 14 19 18 8 8 10 8 9 7 7 4 7 4 7 8 4 3 2 7 4 5 1 5 5 13 15 4 1 3 10 15 12 10 10 10 10 16 16
3 3 1 5 11 12 12 16 19 18 11 9 8 13 9 8 6 15 5 3 7 4 7 1 4 6 5 5 1 9 6 14 20 25 1 13 8 6 8 8 8 9 10 12 12
10 11 4 4 6 10 9 13 14 13 10 13 11 12 5 8 8 10 10 14 6 3 6 5 2 2 2 4 1 4 10 14 15 12 5 3 8 9 8 8 8 9 14 11 10
Wind_Direction
352 348 344 339 331 324 316 309 301 296 297 302 309 316 317 318 314 317 261 254 248 268 296 303 293 271 264 253 259 283 16 86 40 107 105 151 86 36 68 99 76 139 139 140 152
351 347 343 340 333 326 317 308 298 291 292 299 306 314 317 325 325 285 251 262 260 277 294 298 308 306 273 248 240 118 90 335 53 15 14 131 122 155 81 103 70 109 120 140 157
351 348 343 340 332 326 319 311 300 287 287 295 302 311 318 333 299 245 237 234 236 261 272 289 287 298 305 292 236 318 165 97 75 4 341 44 154 132 127 129 181 137 136 148 152
349 347 346 339 332 326 316 309 298 285 285 291 299 309 316 328 298 44 189 220 235 246 269 282 285 297 293 279 148 181 188 167 164 182 193 338 268 149 178 140 164 137 143 149 162
347 345 343 337 332 325 316 308 296 280 279 284 294 316 335 230 246 256 258 223 233 236 249 266 277 278 281 356 146 239 240 183 186 187 187 185 104 116 107 121 129 139 149 158 173
348 343 342 337 332 324 315 306 292 272 271 278 291 317 287 251 257 249 228 211 221 219 248 256 259 272 294 307 62 35 338 296 198 192 117 125 155 103 114 135 143 149 156 166 175
348 343 340 340 332 324 315 305 283 260 261 266 280 333 263 237 258 283 258 211 234 236 235 252 263 290 313 317 284 136 270 279 238 140 129 88 300 140 167 148 163 159 163 173 166
346 346 339 341 331 326 315 292 261 238 241 254 271 192 250 254 267 278 282 251 239 238 249 266 292 270 304 300 305 211 236 273 109 127 162 133 228 114 186 139 157 152 161 159 172
345 343 341 338 333 325 308 271 233 220 228 247 292 212 265 286 229 243 249 256 247 237 251 266 360 301 318 289 315 251 245 237 193 135 157 203 136 171 214 143 131 112 114 92 122
346 343 341 336 332 323 301 234 202 229 255 255 267 292 258 239 209 224 233 240 255 216 246 254 238 259 273 257 247 260 52 276 154 170 129 14 157 101 33 56 131 150 126 121 214
346 344 341 335 329 320 139 20 202 246 236 202 196 232 301 216 217 201 209 236 248 242 221 224 213 236 240 247 252 192 229 275 312 136 95 58 94 77 8 34 31 140 134 169 226
345 342 339 334 323 295 218 247 245 346 258 223 251 240 263 267 217 188 202 206 223 231 219 249 222 247 251 256 121 309 259 270 292 131 113 82 34 349 40 324 50 20 185 188 234
344 343 340 332 317 269 218 238 262 320 299 274 208 230 250 249 182 198 184 207 214 233 222 213 232 236 241 258 162 227 239 262 187 161 156 116 21 348 298 35 34 8 343 143 130
342 343 340 336 310 303 240 265 247 266 295 254 180 233 255 217 258 203 214 182 240 218 234 228 242 240 247 202 291 231 228 267 352 98 202 130 226 308 287 319 87 140 265 175 106
339 340 335 319 290 262 266 291 243 234 295 144 169 200 201 182 181 217 195 207 226 226 194 248 241 259 163 265 225 256 296 359 316 314 128 9 90 269 10 353 294 213 255 123 104
336 335 327 302 253 261 291 335 150 256 241 175 168 172 199 198 236 178 173 214 244 254 269 253 265 246 196 202 252 265 356 322 305 209 302 191 120 294 270 232 288 244 240 120 115
331 328 303 226 220 330 292 284 221 236 159 146 164 162 193 205 232 164 175 207 218 221 271 287 275 283 178 313 270 259 217 303 323 25 223 64 53 217 9 330 283 285 150 125 117
328 319 276 240 243 292 311 207 247 270 246 158 160 180 187 220 189 157 163 187 240 241 213 209 266 243 230 188 223 232 192 170 262 182 35 48 338 308 305 322 279 259 134 118 106
333 326 249 260 222 245 293 220 243 236 290 157 164 176 205 222 150 154 186 205 215 232 223 217 251 242 205 165 190 272 295 241 285 331 105 132 104 329 314 298 344 145 142 139 134
327 290 250 242 186 197 244 238 264 270 293 246 155 178 197 217 176 163 189 203 221 227 218 259 301 316 178 167 220 177 240 6 340 85 78 154 165 183 228 268 245 197 147 138 135
306 268 240 171 156 209 231 234 263 277 284 316 240 186 207 197 177 193 188 226 208 231 221 227 186 284 306 166 211 270 273 261 99 85 134 154 243 210 217 229 269 238 169 153 131
305 275 152 155 186 221 236 270 260 288 295 340 314 29 243 222 190 190 226 200 200 205 241 208 158 119 258 314 328 239 198 181 115 236 141 149 277 234 208 230 255 257 125 118 120
309 282 201 184 233 244 257 257 263 273 281 288 283 348 299 311 175 184 211 252 231 174 197 213 281 89 354 330 339 337 355 7 130 159 126 130 227 253 211 240 233 214 115 116 127
283 299 282 203 253 270 276 278 274 273 293 310 316 293 267 307 321 179 237 223 106 106 91 71 244 194 189 183 165 292 346 325 358 86 160 219 140 213 225 214 206 151 144 127 119
239 157 44 292 246 293 286 282 290 297 276 281 309 323 315 327 309 257 241 174 160 144 117 118 218 83 69 114 93 274 293 295 358 291 149 280 136 165 166 155 149 153 143 132 137
286 345 182 286 288 264 262 256 266 289 244 246 235 272 260 277 329 327 331 272 176 148 150 207 168 128 186 170 348 285 297 353 348 331 64 93 87 147 150 127 134 131 124 125 134
338 337 288 262 297 306 305 254 276 285 290 261 233 248 23 344 25 54 44 49 41 80 166 169 186 92 60 91 162 55 7 8 337 299 78 11 168 117 127 132 143 133 139 149 146